Time,TemperatureF,DewpointF,PressureIn,WindDirection,WindDirectionDegrees,WindSpeedMPH,WindSpeedGustMPH,Humidity,HourlyPrecipIn,Conditions,Clouds,dailyrainin,SoftwareType,DateUTC
2013-04-04 00:02:00,34.0,15.0,30.00,SW,235,1.0,8.0,46,0.00,,,0.00,,2013-04-04 04:02:00,
2013-04-04 00:12:00,34.0,15.0,30.00,SW,235,1.0,8.0,46,0.00,,,0.00,,2013-04-04 04:12:00,
2013-04-04 00:23:00,34.0,15.0,30.01,NW,315,2.0,5.0,46,0.00,,,0.00,,2013-04-04 04:23:00,
2013-04-04 00:33:00,35.0,16.0,30.00,SSE,157,3.0,10.0,45,0.00,,,0.00,,2013-04-04 04:33:00,
2013-04-04 00:43:00,35.0,16.0,30.00,SSE,157,3.0,10.0,45,0.00,,,0.00,,2013-04-04 04:43:00,
2013-04-04 00:53:00,35.0,16.0,29.98,SE,136,2.0,10.0,45,0.00,,,0.00,,2013-04-04 04:53:00,
2013-04-04 01:02:00,35.0,16.0,29.97,ENE,68,1.0,5.0,46,0.00,,,0.00,,2013-04-04 05:02:00,
2013-04-04 01:13:00,35.0,16.0,29.97,ENE,68,1.0,5.0,46,0.00,,,0.00,,2013-04-04 05:13:00,
2013-04-04 01:23:00,35.0,16.0,29.96,SW,217,0.0,5.0,46,0.00,,,0.00,,2013-04-04 05:23:00,
2013-04-04 01:32:00,35.0,16.0,29.95,SSW,207,7.0,8.0,46,0.00,,,0.00,,2013-04-04 05:32:00,
2013-04-04 01:42:00,35.0,16.0,29.95,SSW,207,7.0,8.0,46,0.00,,,0.00,,2013-04-04 05:42:00,
2013-04-04 01:53:00,35.0,16.0,29.94,SW,225,3.0,3.0,46,0.00,,,0.00,,2013-04-04 05:53:00,
2013-04-04 02:02:00,35.0,17.0,29.93,SSW,202,4.0,13.0,47,0.00,,,0.00,,2013-04-04 06:02:00,
2013-04-04 02:12:00,35.0,17.0,29.93,SSW,202,4.0,13.0,47,0.00,,,0.00,,2013-04-04 06:12:00,
2013-04-04 02:22:00,35.0,17.0,29.93,WSW,248,7.0,9.0,47,0.00,,,0.00,,2013-04-04 06:22:00,
2013-04-04 02:32:00,35.0,18.0,29.91,West,270,11.0,12.0,49,0.00,,,0.00,,2013-04-04 06:32:00,
2013-04-04 02:42:00,35.0,18.0,29.91,West,270,11.0,12.0,49,0.00,,,0.00,,2013-04-04 06:42:00,
2013-04-04 02:52:00,35.0,18.0,29.91,WNW,292,1.0,9.0,49,0.00,,,0.00,,2013-04-04 06:52:00,
2013-04-04 03:02:00,35.0,18.0,29.91,WNW,292,5.0,5.0,49,0.00,,,0.00,,2013-04-04 07:02:00,
2013-04-04 03:12:00,35.0,18.0,29.91,WNW,292,5.0,5.0,49,0.00,,,0.00,,2013-04-04 07:12:00,
2013-04-04 03:22:00,35.0,18.0,29.90,SW,225,5.0,20.0,49,0.00,,,0.00,,2013-04-04 07:22:00,
2013-04-04 03:32:00,35.0,18.0,29.88,WSW,248,3.0,7.0,50,0.00,,,0.00,,2013-04-04 07:32:00,
2013-04-04 03:43:00,35.0,18.0,29.88,WSW,248,3.0,7.0,50,0.00,,,0.00,,2013-04-04 07:43:00,
2013-04-04 03:52:00,35.0,19.0,29.87,SW,225,8.0,10.0,51,0.00,,,0.00,,2013-04-04 07:52:00,
2013-04-04 04:02:00,36.0,20.0,29.86,WSW,248,9.0,12.0,52,0.00,,,0.00,,2013-04-04 08:02:00,
2013-04-04 04:12:00,36.0,20.0,29.86,WSW,248,9.0,12.0,52,0.00,,,0.00,,2013-04-04 08:12:00,
2013-04-04 04:22:00,36.0,21.0,29.86,West,270,3.0,7.0,54,0.00,,,0.00,,2013-04-04 08:22:00,
2013-04-04 04:32:00,36.0,23.0,29.86,SW,225,6.0,9.0,59,0.00,,,0.00,,2013-04-04 08:32:00,
2013-04-04 04:43:00,36.0,23.0,29.86,SW,225,6.0,9.0,59,0.00,,,0.00,,2013-04-04 08:43:00,
2013-04-04 04:52:00,35.0,24.0,29.86,SW,225,4.0,6.0,65,0.00,,,0.00,,2013-04-04 08:52:00,
2013-04-04 05:02:00,35.0,25.0,29.88,SW,225,1.0,6.0,66,0.00,,,0.00,,2013-04-04 09:02:00,
2013-04-04 05:12:00,35.0,25.0,29.88,SW,225,1.0,6.0,66,0.00,,,0.00,,2013-04-04 09:12:00,
2013-04-04 05:22:00,36.0,26.0,29.88,SSE,158,2.0,6.0,66,0.00,,,0.00,,2013-04-04 09:22:00,
2013-04-04 05:33:00,36.0,25.0,29.88,West,270,1.0,3.0,65,0.00,,,0.00,,2013-04-04 09:33:00,
2013-04-04 05:43:00,36.0,25.0,29.88,West,270,1.0,3.0,65,0.00,,,0.00,,2013-04-04 09:43:00,
2013-04-04 05:54:00,36.0,25.0,29.88,NNE,22,2.0,3.0,65,0.00,,,0.00,,2013-04-04 09:54:00,
2013-04-04 06:04:00,36.0,26.0,29.88,WSW,248,2.0,3.0,66,0.00,,,0.00,,2013-04-04 10:04:00,
2013-04-04 06:12:00,36.0,26.0,29.88,WSW,248,2.0,3.0,66,0.00,,,0.00,,2013-04-04 10:12:00,
2013-04-04 06:23:00,36.0,26.0,29.87,SW,225,1.0,3.0,66,0.00,,,0.00,,2013-04-04 10:23:00,
2013-04-04 06:33:00,36.0,25.0,29.86,SW,225,2.0,3.0,65,0.00,,,0.00,,2013-04-04 10:33:00,
2013-04-04 06:42:00,36.0,25.0,29.86,SW,225,2.0,3.0,65,0.00,,,0.00,,2013-04-04 10:42:00,
2013-04-04 06:54:00,36.0,25.0,29.86,SW,225,2.0,3.0,65,0.00,,,0.00,,2013-04-04 10:54:00,
2013-04-04 07:02:00,36.0,26.0,29.86,WSW,248,2.0,2.0,66,0.00,,,0.00,,2013-04-04 11:02:00,
2013-04-04 07:12:00,36.0,26.0,29.86,WSW,248,2.0,2.0,66,0.00,,,0.00,,2013-04-04 11:12:00,
2013-04-04 07:22:00,36.0,26.0,29.86,West,270,0.0,2.0,66,0.00,,,0.00,,2013-04-04 11:22:00,
2013-04-04 07:33:00,36.0,25.0,29.85,West,270,2.0,2.0,65,0.00,,,0.00,,2013-04-04 11:33:00,
2013-04-04 07:42:00,36.0,25.0,29.85,West,270,2.0,2.0,65,0.00,,,0.00,,2013-04-04 11:42:00,
2013-04-04 07:54:00,36.0,25.0,29.85,West,270,2.0,3.0,65,0.00,,,0.00,,2013-04-04 11:54:00,
2013-04-04 08:02:00,37.0,26.0,29.85,WSW,248,0.0,5.0,65,0.00,,,0.00,,2013-04-04 12:02:00,
2013-04-04 08:12:00,37.0,26.0,29.85,WSW,248,0.0,5.0,65,0.00,,,0.00,,2013-04-04 12:12:00,
2013-04-04 08:22:00,37.0,26.0,29.85,WNW,292,0.0,0.0,63,0.00,,,0.00,,2013-04-04 12:22:00,
2013-04-04 08:32:00,37.0,26.0,29.84,SW,225,0.0,0.0,63,0.00,,,0.00,,2013-04-04 12:32:00,
2013-04-04 08:43:00,37.0,26.0,29.84,SW,225,0.0,0.0,63,0.00,,,0.00,,2013-04-04 12:43:00,
2013-04-04 08:52:00,38.0,27.0,29.85,WSW,248,0.0,0.0,63,0.00,,,0.00,,2013-04-04 12:52:00,
2013-04-04 09:02:00,38.0,26.0,29.85,West,270,0.0,0.0,62,0.00,,,0.00,,2013-04-04 13:02:00,
2013-04-04 09:12:00,38.0,26.0,29.85,West,270,0.0,0.0,62,0.00,,,0.00,,2013-04-04 13:12:00,
2013-04-04 09:22:00,38.0,26.0,29.85,WSW,248,0.0,0.0,62,0.00,,,0.00,,2013-04-04 13:22:00,
2013-04-04 09:32:00,38.0,26.0,29.84,WSW,248,0.0,0.0,62,0.00,,,0.00,,2013-04-04 13:32:00,
2013-04-04 09:42:00,38.0,26.0,29.84,WSW,248,0.0,0.0,62,0.00,,,0.00,,2013-04-04 13:42:00,
2013-04-04 09:53:00,38.0,26.0,29.84,NNW,338,0.0,0.0,62,0.00,,,0.00,,2013-04-04 13:53:00,
2013-04-04 10:03:00,39.0,27.0,29.84,NW,315,0.0,0.0,62,0.00,,,0.00,,2013-04-04 14:03:00,
2013-04-04 10:12:00,39.0,27.0,29.84,NW,315,0.0,0.0,62,0.00,,,0.00,,2013-04-04 14:12:00,
2013-04-04 10:22:00,39.0,27.0,29.83,WNW,292,0.0,0.0,62,0.00,,,0.00,,2013-04-04 14:22:00,
2013-04-04 10:32:00,40.0,28.0,29.84,West,270,0.0,0.0,62,0.00,,,0.00,,2013-04-04 14:32:00,
2013-04-04 10:42:00,40.0,28.0,29.84,West,270,0.0,0.0,62,0.00,,,0.00,,2013-04-04 14:42:00,
2013-04-04 10:53:00,40.0,28.0,29.84,WNW,292,0.0,0.0,62,0.00,,,0.00,,2013-04-04 14:53:00,
2013-04-04 11:02:00,40.0,28.0,29.84,NW,315,0.0,0.0,63,0.00,,,0.00,,2013-04-04 15:02:00,
2013-04-04 11:12:00,40.0,28.0,29.84,NW,315,0.0,0.0,63,0.00,,,0.00,,2013-04-04 15:12:00,
2013-04-04 11:23:00,40.0,28.0,29.83,West,270,0.0,0.0,63,0.00,,,0.00,,2013-04-04 15:23:00,
2013-04-04 11:33:00,40.0,29.0,29.84,West,270,0.0,0.0,64,0.00,,,0.00,,2013-04-04 15:33:00,
2013-04-04 11:43:00,40.0,29.0,29.84,West,270,0.0,0.0,64,0.00,,,0.00,,2013-04-04 15:43:00,
2013-04-04 11:53:00,40.0,29.0,29.84,WSW,248,0.0,0.0,64,0.00,,,0.00,,2013-04-04 15:53:00,
2013-04-04 12:03:00,40.0,29.0,29.85,West,270,0.0,0.0,64,0.00,,,0.00,,2013-04-04 16:03:00,
2013-04-04 12:12:00,40.0,29.0,29.85,West,270,0.0,0.0,64,0.00,,,0.00,,2013-04-04 16:12:00,
2013-04-04 12:23:00,40.0,29.0,29.85,NW,315,0.0,0.0,65,0.00,,,0.00,,2013-04-04 16:23:00,
2013-04-04 12:32:00,40.0,29.0,29.85,WNW,292,0.0,0.0,65,0.00,,,0.00,,2013-04-04 16:32:00,
2013-04-04 12:42:00,40.0,29.0,29.85,WNW,292,0.0,0.0,65,0.00,,,0.00,,2013-04-04 16:42:00,
2013-04-04 12:53:00,42.0,31.0,29.85,West,270,0.0,0.0,64,0.00,,,0.00,,2013-04-04 16:53:00,
2013-04-04 13:03:00,42.0,30.0,29.86,NNW,338,0.0,0.0,62,0.00,,,0.00,,2013-04-04 17:03:00,
2013-04-04 13:13:00,42.0,30.0,29.86,NNW,338,0.0,0.0,62,0.00,,,0.00,,2013-04-04 17:13:00,
2013-04-04 13:22:00,42.0,30.0,29.86,WNW,292,0.0,0.0,62,0.00,,,0.00,,2013-04-04 17:22:00,
2013-04-04 13:33:00,42.0,30.0,29.86,NW,323,0.0,0.0,62,0.00,,,0.00,,2013-04-04 17:33:00,
2013-04-04 13:42:00,42.0,30.0,29.86,NW,323,0.0,0.0,62,0.00,,,0.00,,2013-04-04 17:42:00,
2013-04-04 13:52:00,43.0,30.0,29.85,West,270,0.0,0.0,61,0.00,,,0.00,,2013-04-04 17:52:00,
2013-04-04 14:02:00,45.0,31.0,29.85,NW,315,0.0,0.0,57,0.00,,,0.00,,2013-04-04 18:02:00,
2013-04-04 14:12:00,45.0,31.0,29.85,NW,315,0.0,0.0,57,0.00,,,0.00,,2013-04-04 18:12:00,
2013-04-04 14:22:00,45.0,29.0,29.85,NW,315,0.0,0.0,53,0.00,,,0.00,,2013-04-04 18:22:00,
2013-04-04 14:32:00,44.0,28.0,29.85,NNW,338,0.0,0.0,53,0.00,,,0.00,,2013-04-04 18:32:00,
2013-04-04 14:42:00,44.0,28.0,29.85,NNW,338,0.0,0.0,53,0.00,,,0.00,,2013-04-04 18:42:00,
2013-04-04 14:52:00,44.0,28.0,29.86,NNW,338,0.0,0.0,53,0.00,,,0.00,,2013-04-04 18:52:00,
2013-04-04 15:02:00,45.0,28.0,29.85,NNW,335,0.0,0.0,52,0.00,,,0.00,,2013-04-04 19:02:00,
2013-04-04 15:12:00,45.0,28.0,29.85,NNW,335,0.0,0.0,52,0.00,,,0.00,,2013-04-04 19:12:00,
2013-04-04 15:22:00,45.0,27.0,29.85,WSW,248,0.0,0.0,50,0.00,,,0.00,,2013-04-04 19:22:00,
2013-04-04 15:42:00,46.0,27.0,29.85,NW,312,0.0,0.0,47,0.00,,,0.00,,2013-04-04 19:42:00,
2013-04-04 15:52:00,46.0,26.0,29.85,NNW,338,0.0,0.0,46,0.00,,,0.00,,2013-04-04 19:52:00,
2013-04-04 16:03:00,46.0,26.0,29.86,NNW,331,0.0,0.0,46,0.00,,,0.00,,2013-04-04 20:03:00,
2013-04-04 16:12:00,46.0,26.0,29.86,NNW,331,0.0,0.0,46,0.00,,,0.00,,2013-04-04 20:12:00,
2013-04-04 16:22:00,45.0,26.0,29.86,WNW,292,0.0,0.0,47,0.00,,,0.00,,2013-04-04 20:22:00,
2013-04-04 16:32:00,44.0,25.0,29.86,WNW,288,0.0,0.0,47,0.00,,,0.00,,2013-04-04 20:32:00,
2013-04-04 16:42:00,44.0,25.0,29.86,WNW,288,0.0,0.0,47,0.00,,,0.00,,2013-04-04 20:42:00,
2013-04-04 16:53:00,44.0,26.0,29.87,WSW,248,0.0,0.0,48,0.00,,,0.00,,2013-04-04 20:53:00,
2013-04-04 17:02:00,44.0,26.0,29.87,NW,315,0.0,0.0,48,0.00,,,0.00,,2013-04-04 21:02:00,
2013-04-04 17:12:00,44.0,26.0,29.87,NW,315,0.0,0.0,48,0.00,,,0.00,,2013-04-04 21:12:00,
2013-04-04 17:22:00,44.0,26.0,29.87,WNW,283,0.0,0.0,49,0.00,,,0.00,,2013-04-04 21:22:00,
2013-04-04 17:32:00,44.0,27.0,29.88,NW,315,0.0,0.0,51,0.00,,,0.00,,2013-04-04 21:32:00,
2013-04-04 17:43:00,44.0,27.0,29.88,NW,315,0.0,0.0,51,0.00,,,0.00,,2013-04-04 21:43:00,
2013-04-04 17:53:00,43.0,26.0,29.89,WNW,296,0.0,0.0,51,0.00,,,0.00,,2013-04-04 21:53:00,
2013-04-04 18:03:00,42.0,25.0,29.89,WNW,297,0.0,0.0,51,0.00,,,0.00,,2013-04-04 22:03:00,
2013-04-04 18:12:00,42.0,25.0,29.89,WNW,297,0.0,0.0,51,0.00,,,0.00,,2013-04-04 22:12:00,
2013-04-04 18:23:00,41.0,25.0,29.90,NW,315,0.0,0.0,53,0.00,,,0.00,,2013-04-04 22:23:00,
2013-04-04 18:33:00,41.0,26.0,29.90,NW,315,0.0,0.0,54,0.00,,,0.00,,2013-04-04 22:33:00,
2013-04-04 18:42:00,41.0,26.0,29.90,NW,315,0.0,0.0,54,0.00,,,0.00,,2013-04-04 22:42:00,
2013-04-04 18:53:00,41.0,25.0,29.91,NW,315,0.0,0.0,53,0.00,,,0.00,,2013-04-04 22:53:00,
2013-04-04 19:02:00,40.0,24.0,29.92,NNW,338,0.0,0.0,52,0.00,,,0.00,,2013-04-04 23:02:00,
2013-04-04 19:12:00,40.0,24.0,29.92,NNW,338,0.0,0.0,52,0.00,,,0.00,,2013-04-04 23:12:00,
2013-04-04 19:22:00,39.0,25.0,29.93,NW,315,0.0,0.0,56,0.00,,,0.00,,2013-04-04 23:22:00,
2013-04-04 19:32:00,38.0,25.0,29.94,NW,315,1.0,10.0,58,0.00,,,0.00,,2013-04-04 23:32:00,
2013-04-04 19:42:00,38.0,25.0,29.94,NW,315,1.0,10.0,58,0.00,,,0.00,,2013-04-04 23:42:00,
2013-04-04 19:52:00,37.0,24.0,29.94,NW,315,8.0,52.0,60,0.00,,,0.00,,2013-04-04 23:52:00,
2013-04-04 20:02:00,37.0,25.0,29.94,NW,315,0.0,28.0,61,0.00,,,0.00,,2013-04-05 00:02:00,
2013-04-04 20:12:00,37.0,25.0,29.94,NW,315,0.0,28.0,61,0.00,,,0.00,,2013-04-05 00:12:00,
2013-04-04 20:22:00,36.0,24.0,29.94,NW,315,0.0,1.0,61,0.00,,,0.00,,2013-04-05 00:22:00,
2013-04-04 20:32:00,36.0,24.0,29.95,NW,315,1.0,1.0,61,0.00,,,0.00,,2013-04-05 00:32:00,
2013-04-04 20:42:00,36.0,24.0,29.95,NW,315,1.0,1.0,61,0.00,,,0.00,,2013-04-05 00:42:00,
2013-04-04 20:52:00,35.0,23.0,29.96,NW,315,0.0,0.0,61,0.00,,,0.00,,2013-04-05 00:52:00,
2013-04-04 21:02:00,35.0,23.0,29.96,NW,306,0.0,0.0,61,0.00,,,0.00,,2013-04-05 01:02:00,
2013-04-04 21:12:00,35.0,23.0,29.96,NW,306,0.0,0.0,61,0.00,,,0.00,,2013-04-05 01:12:00,
2013-04-04 21:22:00,34.0,22.0,29.96,WNW,295,0.0,0.0,62,0.00,,,0.00,,2013-04-05 01:22:00,
2013-04-04 21:32:00,34.0,23.0,29.96,WNW,292,0.0,0.0,63,0.00,,,0.00,,2013-04-05 01:32:00,
2013-04-04 21:42:00,34.0,23.0,29.96,WNW,292,0.0,0.0,63,0.00,,,0.00,,2013-04-05 01:42:00,
2013-04-04 21:53:00,34.0,23.0,29.96,WNW,292,0.0,0.0,63,0.00,,,0.00,,2013-04-05 01:53:00,
2013-04-04 22:03:00,34.0,23.0,29.96,WNW,292,0.0,0.0,63,0.00,,,0.00,,2013-04-05 02:03:00,
2013-04-04 22:12:00,34.0,23.0,29.96,WNW,292,0.0,0.0,63,0.00,,,0.00,,2013-04-05 02:12:00,
2013-04-04 22:32:00,33.0,22.0,30.00,NNW,338,0.0,0.0,63,0.00,,,0.00,,2013-04-05 02:32:00,
2013-04-04 22:42:00,33.0,22.0,30.00,NNW,338,0.0,0.0,63,0.00,,,0.00,,2013-04-05 02:42:00,
2013-04-04 22:52:00,33.0,23.0,30.01,NW,315,0.0,0.0,65,0.00,,,0.00,,2013-04-05 02:52:00,
2013-04-04 23:02:00,33.0,23.0,30.01,NNW,330,1.0,1.0,66,0.00,,,0.00,,2013-04-05 03:02:00,
2013-04-04 23:12:00,33.0,23.0,30.01,NNW,330,1.0,1.0,66,0.00,,,0.00,,2013-04-05 03:12:00,
2013-04-04 23:22:00,32.0,22.0,30.01,WNW,292,0.0,1.0,67,0.00,,,0.00,,2013-04-05 03:22:00,
2013-04-04 23:32:00,32.0,22.0,30.01,NW,315,0.0,1.0,66,0.00,,,0.00,,2013-04-05 03:32:00,
2013-04-04 23:43:00,32.0,22.0,30.01,NW,315,0.0,1.0,66,0.00,,,0.00,,2013-04-05 03:43:00,
2013-04-04 23:54:00,31.0,21.0,30.02,West,274,0.0,0.0,65,0.00,,,0.00,,2013-04-05 03:54:00,